Location: Unspecified
(37.6100°N, 2.7800°W)
Time: 14:53:41
(UTC+00:00)

Envisat - Visible Passes

Search period start: 16 October 2019 00:00
Search period end: 26 October 2019 00:00
Orbit: 764 x 766 km, 98.1° (Epoch: 16 October)

Date Brightness Start Highest point End Pass type
(mag) Time Alt. Az. Time Alt. Az. Time Alt. Az.
16 Oct 3.0 18:17:37 10° SSE 18:22:42 87° ENE 18:27:48 10° NNW visible
17 Oct 5.4 19:21:14 10° SW 19:25:10 22° W 19:29:06 10° NW visible
18 Oct 6.3 05:53:31 10° ENE 05:56:23 15° E 05:59:14 10° SE visible
18 Oct 3.9 18:43:16 10° S 18:48:12 52° W 18:53:10 10° NNW visible
19 Oct 3.0 18:06:25 10° SSE 18:11:27 68° ENE 18:16:31 10° N visible
19 Oct 6.2 19:48:58 10° WSW 19:50:54 12° W 19:52:52 10° WNW visible
20 Oct 5.0 19:09:28 10° SSW 19:13:49 29° W 19:18:12 10° NW visible
21 Oct 6.7 05:43:24 10° ENE 05:45:00 11° E 05:46:36 10° ESE visible
21 Oct 3.4 18:31:53 10° S 18:36:56 67° WSW 18:42:00 10° NNW visible
22 Oct 3.1 17:55:19 10° SSE 18:00:13 53° ENE 18:05:10 10° N visible
22 Oct 5.9 19:36:30 10° SW 19:39:31 16° W 19:42:35 10° NW visible
23 Oct 4.6 18:57:50 10° SSW 19:02:30 36° W 19:07:11 10° NNW visible
24 Oct 3.0 18:20:35 10° SSE 18:25:40 86° WSW 18:30:47 10° NNW visible
25 Oct 3.4 17:44:17 10° SE 17:49:01 41° ENE 17:53:46 10° N visible
25 Oct 5.6 19:24:27 10° SW 19:28:10 20° W 19:31:54 10° NW visible
